This demonstration page uses our WeatherBlox Daily Observations layout. Learn more.

Left ArrowRight Arrow

44.89941, -97.11507

Hourly Observations for September 30, 2019

Temp ( °F °C ) Dew Point ( °F °C ) Humidity (%) Winds ( mph kmh ) Pressure ( in mb ) Visibility ( mi km ) Precip ( " mm )
12:11 am 00:11 Cloudy 68 20 66 18.9 93 93 SSE 17 28 29.64 1004 10 16 0.00 0.00
12:53 am 00:53 Cloudy 69 20.6 68 20 96 96 SSE 17 28 29.65 1004 10 16 0.00 0.00
1:53 am 01:53 Cloudy 71 21.7 69 20.6 94 94 SSE 18 30 29.63 1003 10 16 0.00 0.00
2:01 am 02:01 Cloudy 71 21.7 69 20.6 94 94 S 15 24 29.58 1002 10 16 0.00 0.00
2:53 am 02:53 Cloudy 72 22.2 70 21.1 94 94 S 20 31 29.62 1003 10 16 0.00 0.00
3:16 am 03:16 Cloudy 72 22.2 70 21.1 94 94 SSE 17 28 29.56 1001 10 16 0.00 0.00
3:53 am 03:53 Cloudy 72 22.2 70 21.1 94 94 S 17 28 29.60 1003 10 16 0.00 0.00
4:05 am 04:05 Cloudy 72 22.2 70 21.1 94 94 S 17 28 29.55 1001 10 16 0.00 0.00
4:53 am 04:53 Cloudy 72 22.2 70 21.1 94 94 S 14 22 29.60 1003 10 16 0.00 0.00
5:09 am 05:09 Mostly Cloudy 72 22.2 70 21.1 94 94 S 12 19 29.55 1001 10 16 0.00 0.00
5:35 am 05:35 Partly Cloudy 72 22.2 70 21.1 94 94 S 9 15 29.57 1001 10 16 0.00 0.00
5:53 am 05:53 Mostly Cloudy 71 21.7 69 20.6 94 94 S 9 15 29.62 1003 10 16 0.00 0.00
6:49 am 06:49 Cloudy 72 22 70 21 94 94 SSE 6 9 29.56 1001 10 16 0.00 0.00
6:53 am 06:53 Cloudy 72 22.2 70 21.1 94 94 SE 5 7 29.61 1003 10 16 0.00 0.00
7:53 am 07:53 Cloudy 73 22.8 70 21.1 90 90 S 15 24 29.60 1002 10 16 0.00 0.00
8:53 am 08:53 Partly Cloudy 74 23.3 70 21.1 88 88 S 15 24 29.60 1002 10 16 0.00 0.00
9:53 am 09:53 Mostly Cloudy 76 24.4 70 21.1 82 82 S 16 26 29.59 1002 10 16 0.00 0.00
10:15 am 10:15 Cloudy 77 25 70 21.1 79 79 SSW 18 30 29.54 1000 10 16 0.00 0.00
10:53 am 10:53 Mostly Cloudy 77 25 70 21.1 79 79 SSW 20 31 29.58 1002 10 16 0.00 0.00
11:53 am 11:53 Cloudy 79 26.1 70 21.1 74 74 SSW 16 26 29.58 1002 10 16 0.00 0.00
12:24 pm 12:24 Mostly Cloudy 78 25.6 69 20.6 74 74 SSW 17 28 29.53 1000 10 16 0.00 0.00
12:53 pm 12:53 Mostly Cloudy 77 25 69 20.6 77 77 SW 24 39 29.60 1003 10 16 0.00 0.00
1:09 pm 13:09 Mostly Cloudy 76 24.4 69 20.6 79 79 WSW 20 31 29.57 1001 10 16 0.00 0.00
1:45 pm 13:45 Cloudy 72 22.2 67 19.4 84 84 WSW 14 22 29.61 1003 10 16 0.00 0.00
1:53 pm 13:53 Cloudy 72 22.2 67 19.4 84 84 SW 14 22 29.65 1004 10 16 0.00 0.00
2:38 pm 14:38 Cloudy 69 20.6 65 18.3 87 87 WNW 7 11 29.63 1003 10 16 0.00 0.00
2:53 pm 14:53 Mostly Cloudy 71 21.7 65 18.3 81 81 WNW 10 17 29.68 1005 10 16 0.00 0.00
3:09 pm 15:09 Mostly Cloudy 67 19.4 62 16.7 84 84 WNW 13 20 29.66 1004 10 16 0.00 0.00
3:35 pm 15:35 Cloudy 60 15.6 57 13.9 90 90 NW 16 26 29.72 1007 10 16 0.00 0.00
3:53 pm 15:53 Cloudy 58 14.4 55 12.8 90 90 NNW 16 26 29.75 1007 9 14 0.00 0.00
4:38 pm 16:38 Cloudy with Mist and Fog 56 13.3 55 12.8 97 97 NNW 9 15 29.77 1008 5 8 0.00 0.00
4:53 pm 16:53 Cloudy 57 13.9 55 12.8 93 93 NW 12 19 29.78 1009 10 16 0.00 0.00
5:53 pm 17:53 Cloudy 57 13.9 54 12.2 90 90 NW 9 15 29.82 1010 10 16 0.00 0.00
6:53 pm 18:53 Cloudy 56 13.3 53 11.7 90 90 NNW 17 28 29.85 1011 10 16 0.00 0.00
7:06 pm 19:06 Cloudy 55 12.8 53 11.7 93 93 NNW 15 24 29.86 1011 9 14 0.00 0.00
7:53 pm 19:53 Cloudy 54 12.2 52 11.1 93 93 NNW 18 30 29.88 1012 7 11 0.00 0.00
8:53 pm 20:53 Cloudy 53 11.7 51 10.6 93 93 NNW 21 33 29.92 1013 10 16 0.00 0.00
9:13 pm 21:13 Cloudy 53 11.7 51 10.6 93 93 NNW 20 31 29.95 1014 10 16 0.00 0.00
9:53 pm 21:53 Partly Cloudy 51 10.6 49 9.4 92 92 NNW 15 24 29.95 1014 10 16 0.00 0.00
10:13 pm 22:13 Mostly Cloudy 51 10.6 49 9.4 92 92 NNW 17 28 29.97 1015 10 16 0.00 0.00
10:45 pm 22:45 Cloudy 50 10 48 8.9 93 93 N 22 35 29.94 1014 10 16 0.00 0.00
10:53 pm 22:53 Cloudy 50 10 48 8.9 93 93 N 15 24 29.91 1013 10 16 0.00 0.00
11:53 pm 23:53 Cloudy 49 9.4 47 8.3 93 93 N 17 28 29.93 1013 10 16 0.00 0.00

Powered by AerisWeather